Photometre #75[NE_1.6] Paris AOT

File : 20220924_75.hum

24/09/2022,06:33:37,TEMP=21.0,BA=5.68,STAT.h
24/09/2022,06:37:33,TEMP=21.0,BA=5.68,STAT.h
24/09/2022,06:42:09,TEMP=21.0,BA=5.68,STAT.h
24/09/2022,06:47:38,TEMP=21.0,BA=5.68,STAT.h
24/09/2022,06:54:15,TEMP=21.0,BA=5.68,STAT.h
24/09/2022,07:02:25,TEMP=21.0,BA=5.68,STAT.h
24/09/2022,07:12:48,TEMP=21.0,BA=5.68,STAT.h
24/09/2022,07:17:46,TEMP=21.0,BA=5.68,STAT.h
24/09/2022,07:23:22,TEMP=21.0,BA=5.68,STAT.h
24/09/2022,07:29:41,TEMP=21.0,BA=5.68,STAT.h
24/09/2022,07:36:54,TEMP=21.0,BA=5.68,STAT.h
24/09/2022,07:45:15,TEMP=21.0,BA=5.68,STAT.h
24/09/2022,07:55:00,TEMP=21.0,BA=5.68,STAT.h
24/09/2022,08:06:36,TEMP=21.0,BA=5.68,STAT.h
24/09/2022,08:20:42,TEMP=21.0,BA=5.68,STAT.h
24/09/2022,08:38:21,TEMP=21.0,BA=5.68,STAT.h
24/09/2022,08:42:58,TEMP=21.0,BA=5.68,STAT.h
24/09/2022,08:58:19,TEMP=15.1,BA=5.68,STAT.D=4.5,ExtBa=13.96
24/09/2022,09:13:19,TEMP=15.6,BA=5.68,STAT.D=4.5,ExtBa=13.96
24/09/2022,09:28:19,TEMP=16.2,BA=5.68,STAT.D=4.5,ExtBa=13.95
24/09/2022,09:43:20,TEMP=16.6,BA=5.68,STAT.F,ExtBa=13.93
24/09/2022,09:58:19,TEMP=16.5,BA=5.68,STAT.D=4.5,ExtBa=13.96
24/09/2022,10:13:19,TEMP=16.2,BA=5.68,STAT.D=4.5,ExtBa=13.97
24/09/2022,10:28:19,TEMP=16.0,BA=5.68,STAT.D=4.5,ExtBa=13.96
24/09/2022,10:43:21,TEMP=16.1,BA=5.68,STAT.F,ExtBa=13.93
24/09/2022,10:58:19,TEMP=16.7,BA=5.68,STAT.D=4.5,ExtBa=13.96
24/09/2022,11:13:19,TEMP=17.9,BA=5.68,STAT.D=5.0,ExtBa=13.96
24/09/2022,11:28:19,TEMP=18.5,BA=5.68,STAT.D=5.0,ExtBa=13.96
24/09/2022,11:43:21,TEMP=18.9,BA=5.68,STAT.F,ExtBa=13.94
24/09/2022,11:58:19,TEMP=19.9,BA=5.68,STAT.D=5.0,ExtBa=13.95
24/09/2022,12:13:19,TEMP=20.9,BA=5.68,STAT.D=5.0,ExtBa=13.95
24/09/2022,12:28:19,TEMP=22.8,BA=5.68,STAT.D=5.0,ExtBa=13.95
24/09/2022,12:43:21,TEMP=24.4,BA=5.68,STAT.F,ExtBa=13.92
24/09/2022,12:58:19,TEMP=24.2,BA=5.68,STAT.D=5.5,ExtBa=13.93
24/09/2022,13:13:19,TEMP=24.0,BA=5.68,STAT.D=5.5,ExtBa=13.92
24/09/2022,13:28:19,TEMP=22.1,BA=5.68,STAT.D=5.0,ExtBa=13.91
24/09/2022,13:43:21,TEMP=20.9,BA=5.68,STAT.F,ExtBa=13.89
24/09/2022,13:58:19,TEMP=19.9,BA=5.68,STAT.D=5.0,ExtBa=13.90
24/09/2022,14:12:58,TEMP=20.2,BA=5.68,STAT.h
24/09/2022,14:28:19,TEMP=18.6,BA=5.68,STAT.D=5.0,ExtBa=13.91
24/09/2022,14:43:20,TEMP=18.3,BA=5.68,STAT.F,ExtBa=13.90
24/09/2022,14:47:57,TEMP=18.3,BA=5.68,STAT.A=5.0,ExtBa=13.91
24/09/2022,15:05:36,TEMP=17.7,BA=5.68,STAT.A=5.0,ExtBa=13.92
24/09/2022,15:19:42,TEMP=17.6,BA=5.68,STAT.A=5.0,ExtBa=13.92
24/09/2022,15:31:18,TEMP=17.7,BA=5.68,STAT.A=5.0,ExtBa=13.92
24/09/2022,15:41:03,TEMP=17.8,BA=5.68,STAT.C=5.0,ExtBa=13.92
24/09/2022,15:49:24,TEMP=17.9,BA=5.68,STAT.A=5.0,ExtBa=13.92
24/09/2022,15:56:37,TEMP=17.9,BA=5.44,STAT.A=5.0,ExtBa=13.93
24/09/2022,16:02:56,TEMP=17.9,BA=5.68,STAT.A=5.0,ExtBa=13.93
24/09/2022,16:08:32,TEMP=17.9,BA=5.68,STAT.A=5.0,ExtBa=13.93
24/09/2022,16:13:30,TEMP=18.0,BA=5.40,STAT.B=5.0,ExtBa=13.93
24/09/2022,16:23:53,TEMP=17.8,BA=5.68,STAT.A=5.0,ExtBa=13.92
24/09/2022,16:32:02,TEMP=17.8,BA=5.68,STAT.A=5.0,ExtBa=13.92
24/09/2022,16:38:39,TEMP=17.8,BA=5.68,STAT.A=5.0,ExtBa=13.92
24/09/2022,16:44:08,TEMP=17.8,BA=5.40,STAT.A=5.0,ExtBa=13.93
24/09/2022,16:49:48,TEMP=17.7,BA=5.40,STAT.A=5.0,ExtBa=13.93
24/09/2022,16:52:40,TEMP=17.9,BA=5.40,STAT.A=4.5,ExtBa=13.89